Location: Starry Hill Observatory
(46.8582°N, 122.3590°W)
Time: 04:08:15
(UTC-07:00)

ISS - Visible Passes

Search period start: 06 May 2016 00:00
Search period end: 16 May 2016 00:00
Orbit: 402 x 405 km, 51.6° (Epoch: 06 May)

Date Brightness Start Highest point End Pass type
(mag) Time Alt. Az. Time Alt. Az. Time Alt. Az.
10 May -1.1 04:30:53 10° S 04:33:07 17° SE 04:35:21 10° E visible
12 May -2.2 04:22:01 16° SSW 04:24:07 34° SE 04:27:07 10° ENE visible
13 May -1.6 03:31:19 20° SSE 03:31:39 20° SE 03:34:09 10° E visible
14 May -3.3 04:13:11 21° SW 04:15:11 69° SSE 04:18:27 10° ENE visible
15 May -2.7 03:22:21 39° SSE 03:22:36 40° SE 03:25:43 10° ENE visible
15 May -2.5 04:55:52 10° W 04:59:03 48° NNW 05:02:15 10° ENE visible
